[[{"header":{"parameterUnit":"m.s-1","parameterCategory":1,"la1":30.2991,"la2":30.254,"lo1":-89.0895,"lo2":-89.0444,"dy":0.0017,"dx":0.0017,"nx":28,"ny":28,"refTime":"2023-04-26T21:00:00:Z","depth":0,"parameterNumber":2,"parameterNumberName":"U-component_of_WINDS"},"data":[0,0,0,0,0,0,0,0,0,0,0,0,0,0,0,0,0,0,0,0,0,0,0,0,0,0,0,0,0,0,0,0,0,0,0,0,0,0,0,0,0,0,0,0,0,0,0,0,0,0,0,0,0,0,0,0,0,0,1.6231,1.6231,0,1.6278,1.6278,1.6279,1.6224,1.6222,1.622,1.6218,1.6273,1.6276,1.6279,0,0,0,0,0,0,0,0,0,0,0,0,0,1.6099,1.6101,1.6231,1.6231,1.6232,1.6278,1.6278,1.6279,1.6224,1.6222,1.6219,1.6217,1.6271,1.6275,1.6279,0,0,0,0,0,0,0,0,0,0,0,0,0,1.6152,1.6102,1.6231,1.621,1.6209,1.6278,1.6278,1.6279,1.6225,1.6222,1.6219,1.6216,1.627,1.6275,1.628,1.6373,0,0,1.6296,1.6298,0,0,0,0,0,0,0,0,1.6149,1.6157,1.6213,1.6212,1.621,1.6242,1.6252,1.6311,1.6226,1.6219,1.6218,1.6214,1.6265,1.6271,1.6286,1.6376,1.6378,1.6296,1.6299,1.6301,1.6303,0,0,0,0,0,0,0,1.6145,1.6155,1.625,1.6213,1.6212,1.62,1.6204,1.6263,1.6259,1.6219,1.6215,1.6221,1.6264,1.6282,1.6287,1.6379,1.6296,1.63,1.6303,1.6305,1.6546,1.6549,0,0,0,0,0,0,1.6143,1.6152,1.6248,1.6251,1.6171,1.6205,1.621,1.6235,1.6258,1.6259,1.6224,1.6219,1.6274,1.6281,1.6289,1.6398,1.6301,1.6306,1.6309,1.6543,1.6547,1.655,0,0,0,0,0,0,1.6141,1.6152,1.6246,1.62,1.6211,1.621,1.6239,1.6237,1.6255,1.6262,1.6261,1.6242,1.6272,1.6282,1.6352,1.64,1.6308,1.6313,1.6539,1.6544,1.6549,1.6619,0,0,0,0,0,0,1.6137,1.6152,1.6186,1.6201,1.6214,1.6307,1.6242,1.6241,1.6263,1.6256,1.6279,1.628,1.6271,1.6345,1.6357,1.6405,1.6317,1.6534,1.6541,1.6547,1.6612,1.6626,1.6637,0,0,0,0,0,1.6133,1.6206,1.6188,1.62,1.6257,1.631,1.6317,1.6304,1.6267,1.6302,1.6306,1.6279,1.6392,1.6352,1.6366,1.6416,1.6531,1.6539,1.6546,1.6607,1.6623,1.6637,0,0,0,0,0,0,1.62,1.6208,1.6188,1.6268,1.6289,1.6301,1.6345,1.6322,1.6355,1.6347,1.6331,1.6336,1.6411,1.642,1.6376,1.6507,1.6456,1.6467,1.6497,1.6513,1.6525,1.6521,1.6321,0,0,0,0,0,1.6223,1.6264,1.627,1.634,1.6351,1.6346,1.6369,1.6356,1.6377,1.6386,1.6396,1.6419,1.6459,1.6487,1.6525,1.6613,1.6617,1.6655,1.6667,1.6677,1.6687,1.6733,1.6749,1.6575,1.6575,1.6575,0,0,1.6273,1.6283,1.631,1.6354,1.6368,1.6411,1.6354,1.6403,1.6436,1.6395,1.646,1.6468,1.6493,1.6572,1.6608,1.6583,1.6735,1.6687,1.6695,1.6699,1.6742,1.6759,1.6773,1.658,1.6579,1.6578,0,0,1.6387,1.6398,1.6457,1.6471,1.6492,1.6488,1.6503,1.6518,1.652,1.6585,1.6555,1.6594,1.6665,1.6683,1.6702,1.682,1.6796,1.6833,1.6898,1.6943,1.6957,1.6969,1.701,1.7025,1.6842,1.6843,1.6843,0,1.6447,1.651,1.6491,1.6541,1.6561,1.6523,1.6583,1.6599,1.6632,1.6648,1.6618,1.6704,1.6719,1.6801,1.6829,1.6846,1.6862,1.683,1.6956,1.6968,1.6979,1.7018,1.7034,1.6847,1.6846,1.6846,1.6845,0,1.6582,1.6626,1.6672,1.6701,1.6727,1.6782,1.6772,1.68,1.6785,1.6785,1.6851,1.6866,1.6906,1.6924,1.6912,1.7005,1.6988,1.6958,1.6907,1.7,1.7036,1.7051,1.6853,1.6851,1.685,1.6849,0,0,1.674,1.6757,1.6774,1.6786,1.6805,1.684,1.6893,1.6929,1.6953,1.6978,1.7022,1.7081,1.7053,1.7074,1.7063,1.7102,1.7193,1.7067,1.7067,1.7089,1.7296,1.7318,1.7335,1.7177,1.718,1.7182,1.7293,0,1.6853,1.6942,1.6926,1.7014,1.7054,1.7018,1.7064,1.7082,1.7082,1.7118,1.7119,1.7161,1.7121,1.7133,1.717,1.7174,1.7234,1.7166,1.7219,1.7221,1.7213,1.7355,1.7378,1.7483,1.7307,1.731,1.7312,0,1.6996,1.7022,1.7113,1.7124,1.714,1.7182,1.7213,1.7247,1.7266,1.7264,1.7286,1.7267,1.7321,1.7269,1.7343,1.7297,1.7317,1.7322,1.7326,1.733,1.7272,1.7362,1.7516,1.7531,1.7334,1.7332,1.7331,0,1.7101,1.7159,1.722,1.7232,1.7247,1.7277,1.7285,1.7301,1.7323,1.7351,1.7365,1.7399,1.7418,1.7446,1.7437,1.74,1.7513,1.746,1.7513,1.7513,1.7538,1.7537,1.7697,1.7553,1.7553,1.7552,1.7552,0,1.7228,1.7285,1.7267,1.7305,1.7368,1.7349,1.7412,1.7416,1.743,1.7469,1.7441,1.7478,1.7463,1.75,1.7494,1.7556,1.7565,1.7565,1.7562,1.7567,1.7567,1.758,1.7573,1.7557,1.7556,1.7555,1.7554,0,1.7355,1.7346,1.741,1.7418,1.7421,1.7467,1.7474,1.751,1.7507,1.7557,1.7567,1.7564,1.7606,1.7599,1.7646,1.7641,1.7718,1.7708,1.7711,1.7708,1.7761,1.7756,1.7935,1.7957,1.7799,1.7801,1.7802,0,1.7437,1.7479,1.749,1.7513,1.7522,1.7559,1.758,1.7564,1.7588,1.7611,1.7645,1.7683,1.7712,1.7781,1.7784,1.7819,1.7809,1.7869,1.7814,1.7817,1.7808,1.7806,1.7809,1.788,1.7882,1.7883,1.7884,0,1.7582,1.7574,1.7605,1.7634,1.7659,1.7682,1.7702,1.7723,1.7707,1.7736,1.7776,1.7799,1.7845,1.7884,1.7916,1.7926,1.7903,1.7901,1.7915,1.792,1.792,1.792,1.774,1.7897,1.7896,1.7895,1.7894,1.7894,1.7688,1.7723,1.7736,1.777,1.7783,1.7802,1.7835,1.7835,1.7868,1.7903,1.7891,1.7937,1.7955,1.7996,1.8009,1.8045,1.8023,1.8044,1.8049,1.8054,1.806,1.7914,1.8052,1.8051,1.8051,1.8051,1.805,0,1.783,1.7836,1.7868,1.7895,1.7923,1.7896,1.7916,1.7941,1.7981,1.7998,1.8027,1.8073,1.811,1.8115,1.815,1.8178,1.8168,1.8188,1.8185,1.8188,1.8078,1.8062,1.8195,1.8195,1.8195,1.8195,1.8195,1.8195,1.7908,1.7965,1.7959,1.8023,1.8028,1.8071,1.8085,1.8102,1.8115,1.8167,1.8196,1.8198,1.821,1.8245,1.8278,1.8279,1.8293,1.8316,1.8313,1.821,1.8196,1.8182,1.8167,1.8319,1.832,1.8419,1.842,1.8421]},{"header":{"parameterUnit":"m.s-1","parameterCategory":1,"la1":30.2991,"la2":30.254,"lo1":-89.0895,"lo2":-89.0444,"dy":0.0017,"dx":0.0017,"nx":28,"ny":28,"refTime":"2023-04-26T21:00:00:Z","depth":0,"parameterNumber":3,"parameterNumberName":"V-component_of_WINDS"},"data":[0,0,0,0,0,0,0,0,0,0,0,0,0,0,0,0,0,0,0,0,0,0,0,0,0,0,0,0,0,0,0,0,0,0,0,0,0,0,0,0,0,0,0,0,0,0,0,0,0,0,0,0,0,0,0,0,0,0,1.6837,1.6838,0,1.6875,1.6876,1.6876,1.6859,1.6858,1.6857,1.6856,1.6895,1.6897,1.6899,0,0,0,0,0,0,0,0,0,0,0,0,0,1.6748,1.675,1.6837,1.6838,1.6838,1.6875,1.6876,1.6876,1.6859,1.6858,1.6857,1.6856,1.6895,1.6897,1.6899,0,0,0,0,0,0,0,0,0,0,0,0,0,1.6787,1.675,1.6837,1.6834,1.6834,1.6875,1.6876,1.6877,1.6859,1.6858,1.6856,1.6855,1.6894,1.6897,1.69,1.6947,0,0,1.6909,1.691,0,0,0,0,0,0,0,0,1.6784,1.679,1.6834,1.6834,1.6834,1.6861,1.6859,1.69,1.686,1.685,1.6856,1.6854,1.6885,1.6889,1.6899,1.6948,1.695,1.6909,1.6911,1.6912,1.6913,0,0,0,0,0,0,0,1.6782,1.6788,1.6852,1.6834,1.6835,1.683,1.6834,1.6867,1.6875,1.685,1.6849,1.6854,1.6885,1.6896,1.69,1.6951,1.6909,1.6911,1.6913,1.6914,1.7039,1.704,0,0,0,0,0,0,1.6779,1.6786,1.6851,1.6853,1.6805,1.6833,1.6837,1.6854,1.6875,1.6876,1.6855,1.6853,1.6892,1.6896,1.6901,1.6956,1.6912,1.6915,1.6916,1.7037,1.7039,1.7041,0,0,0,0,0,0,1.6777,1.6785,1.685,1.6819,1.6827,1.6836,1.6855,1.6855,1.6867,1.6878,1.688,1.6865,1.6891,1.6897,1.6935,1.6957,1.6916,1.6919,1.7035,1.7038,1.704,1.7067,0,0,0,0,0,0,1.6775,1.6785,1.6803,1.682,1.6829,1.6883,1.6856,1.6857,1.6872,1.6869,1.6888,1.689,1.689,1.6931,1.6938,1.6961,1.6921,1.7033,1.7037,1.7039,1.7064,1.707,1.7075,0,0,0,0,0,1.6772,1.6809,1.6804,1.6812,1.6852,1.6884,1.689,1.6889,1.6874,1.6892,1.6899,1.6889,1.6954,1.6935,1.6943,1.6967,1.7032,1.7036,1.7039,1.7062,1.7069,1.7075,0,0,0,0,0,0,1.6795,1.6811,1.6806,1.685,1.6866,1.6881,1.6904,1.6897,1.6918,1.6915,1.6914,1.6918,1.6957,1.6966,1.6944,1.7012,1.699,1.6996,1.7005,1.7012,1.7017,1.7014,1.6923,0,0,0,0,0,1.6805,1.683,1.6843,1.6881,1.6889,1.6895,1.691,1.6908,1.6925,1.6931,1.6941,1.6958,1.6982,1.6997,1.702,1.7066,1.7069,1.7086,1.7091,1.7096,1.71,1.7124,1.7131,1.7052,1.7052,1.7052,0,0,1.6826,1.6839,1.6855,1.6886,1.6898,1.6924,1.6901,1.693,1.6949,1.6936,1.6972,1.698,1.6998,1.704,1.7058,1.7048,1.7123,1.71,1.7104,1.7106,1.7128,1.7135,1.7142,1.7055,1.7054,1.7054,0,0,1.6878,1.6891,1.6923,1.6935,1.6954,1.6957,1.6965,1.6981,1.6986,1.7022,1.7013,1.7035,1.7077,1.7089,1.7101,1.7157,1.7149,1.7165,1.7193,1.7216,1.7222,1.7227,1.7246,1.7253,1.7169,1.7169,1.7169,0,1.6902,1.6941,1.694,1.6969,1.6982,1.6972,1.7004,1.7016,1.7041,1.705,1.7038,1.7089,1.7101,1.7145,1.7158,1.7169,1.7177,1.7162,1.7221,1.7226,1.7231,1.7249,1.7257,1.7171,1.7171,1.717,1.717,0,1.6969,1.6996,1.7019,1.7043,1.706,1.709,1.7093,1.711,1.7107,1.7112,1.7148,1.7161,1.7186,1.7196,1.7194,1.724,1.7232,1.7221,1.7199,1.7241,1.7257,1.7264,1.7173,1.7173,1.7172,1.7172,0,0,1.7036,1.7059,1.7067,1.7077,1.7097,1.7117,1.7147,1.7171,1.7184,1.7202,1.7226,1.7261,1.725,1.7263,1.7262,1.7283,1.7324,1.7268,1.7269,1.7277,1.7374,1.7382,1.739,1.7319,1.732,1.7321,1.7372,0,1.7089,1.714,1.714,1.7187,1.7211,1.7201,1.7226,1.7241,1.7246,1.7267,1.7273,1.7297,1.7281,1.7289,1.7308,1.7315,1.7344,1.7312,1.7341,1.7342,1.7336,1.7399,1.7408,1.7456,1.7379,1.738,1.7381,0,1.7156,1.7175,1.7225,1.724,1.725,1.7273,1.7294,1.7314,1.733,1.7332,1.7347,1.7343,1.7372,1.735,1.739,1.7368,1.738,1.7385,1.7387,1.7389,1.7363,1.7402,1.7471,1.7478,1.7391,1.7391,1.739,0,1.7199,1.7237,1.7271,1.7281,1.7299,1.7315,1.7323,1.7338,1.7352,1.737,1.7379,1.7401,1.7413,1.743,1.7431,1.7415,1.7472,1.745,1.7474,1.7474,1.7486,1.7485,1.7556,1.7495,1.7495,1.7495,1.7494,0,1.7257,1.7287,1.7291,1.7312,1.7345,1.7344,1.7378,1.7385,1.7397,1.7419,1.7412,1.7433,1.7434,1.7455,1.7456,1.7489,1.7494,1.7497,1.7496,1.7497,1.7496,1.7504,1.75,1.7496,1.7496,1.7496,1.7495,0,1.731,1.7313,1.735,1.7364,1.7368,1.7392,1.7404,1.7424,1.7428,1.7456,1.7462,1.7469,1.7493,1.7496,1.7525,1.7526,1.7565,1.7562,1.7559,1.7558,1.7582,1.7579,1.766,1.7671,1.7603,1.7604,1.7605,0,1.7346,1.7369,1.7385,1.7399,1.7408,1.7431,1.7445,1.7445,1.746,1.7479,1.7496,1.752,1.7539,1.7578,1.7585,1.7607,1.7604,1.7631,1.7607,1.7606,1.7603,1.7601,1.7603,1.7635,1.7636,1.7636,1.7637,0,1.7409,1.7409,1.743,1.7451,1.7467,1.7484,1.7499,1.7511,1.7513,1.753,1.7555,1.7569,1.7598,1.7621,1.7643,1.7651,1.7644,1.7644,1.7651,1.7651,1.7648,1.7649,1.7571,1.7642,1.7642,1.7641,1.7641,1.7641,1.7454,1.7473,1.7487,1.751,1.7522,1.7536,1.7555,1.7561,1.7582,1.7605,1.7604,1.7631,1.7646,1.7673,1.7683,1.7704,1.7695,1.7705,1.7707,1.771,1.7711,1.7646,1.7708,1.7708,1.7708,1.7708,1.7708,0,1.7515,1.7524,1.7545,1.7566,1.7584,1.7576,1.7593,1.7608,1.7632,1.7646,1.7664,1.7692,1.7714,1.7723,1.7745,1.776,1.7757,1.7766,1.7764,1.7766,1.7719,1.771,1.7767,1.7767,1.7767,1.7767,1.7767,1.7767,1.755,1.7582,1.7584,1.7622,1.763,1.7656,1.7666,1.7679,1.769,1.7722,1.774,1.7746,1.7758,1.778,1.78,1.7802,1.781,1.782,1.782,1.7776,1.777,1.7764,1.7756,1.7822,1.7822,1.7866,1.7866,1.7867]}]]